Regional Weather Roundup
Issued by NWS Grand Forks, ND

Home | Current Version | Previous Version | Text Only | Print | Product List | Glossary On
Versions: 1 2 3 4 5 6 7 8 9 10 11 12 13 14 15 16 17 18 19 20 21 22 23 24 25 26 27 28 29 30 31 32 33 34 35 36 37 38 39 40 41 42 43 44 45 46 47 48 49 50
000
ASUS43 KFGF 280410
RWRFGF
PRAIRIE TO PINES  WEATHER ROUNDUP
NATIONAL WEATHER SERVICE EASTERN NORTH DAKOTA/GRAND FORKS ND
1100 PM CDT MON MAR 27 2017

 **SATELLITE DATA USED TO AUGMENT SKY COVER AT AUTOMATED STATIONS**
 *****  WEATHER ACROSS EASTERN NORTH DAKOTA  *****

CITY           SKY/WX    TMP DP  RH WIND       PRES   REMARKS
GRAND FORKS    FOG       36  36 100 N9        30.08R VSB 1/2
GRAND FRKS AFB FOG       35  35 100 N6        30.08S VSB 3/4
DEVILS LAKE    NOT AVBL
FARGO          FOG       39  38  96 N12       30.05R VSB 1
WAHPETON ARPT    N/A     43  36  75 N5        30.03R
$$

 ***** WEATHER ACROSS CENTRAL AND WESTERN NORTH DAKOTA  *****

CITY           SKY/WX    TMP DP  RH WIND       PRES   REMARKS
BISMARCK       FAIR      43  35  73 NE7       30.00R
MINOT          FOG       37  36  96 E6        30.04R VSB 1/4
JAMESTOWN      FAIR      40  37  89 SE9       30.01R
MINOT AFB      FOG       35  35  99 E6        30.03R VSB 1/2
GARRISON         N/A     36  35  96 E10G18    30.00S
WILLISTON      CLOUDY    40  36  86 NE9       30.01R
DICKINSON      FAIR      40  31  70 SE6       29.94R
HETTINGER      FAIR      40  30  67 SE6       29.97R
$$

 *****  OTHER AIRPORT OBSERVATIONS IN OUR AREA  *****

CITY           SKY/WX    TMP DP  RH WIND       PRES   REMARKS
WALHALLA       NOT AVBL
GRAFTON AIRPOR MOCLDY    34  34 100 N8        30.10R FOG
VALLEY CITY AR MIX PCPN  37  37 100 NE6       30.05R VSB<1/4
CANDO          NOT AVBL
CAVALIER APRT  MOCLDY    34  32  93 NW9       30.10R
GWINNER        CLEAR     39  36  87 MISG      30.03R
SHEYENNE NWR     N/A     41  40  98 NE7       29.95S
ROLLA          CLOUDY    32  32 100 NE10      30.09R WCI  24
 ***** THE ABOVE OBSERVATIONS ARE NON NWS ARE NOT QUALITY
       CONTROLLED AND MAY MIS-REPORT RAIN FOR SNOW...
$$

  *****  WEATHER ACROSS NORTHERN MINNESOTA  *****

CITY           SKY/WX    TMP DP  RH WIND       PRES   REMARKS
FLAG ISLAND    FAIR      37  30  75 CALM      30.05S
WARROAD        FAIR      39  32  75 N7        30.06R
ROSEAU         MOCLDY    39  34  81 CALM      30.06R
HALLOCK        MOCLDY    36  34  93 N7        30.08R
THF RVR FALLS  CLOUDY   N/A N/A N/A N8        30.07R
BAUDETTE       CLOUDY    41  29  62 N6        30.04R
WASKISH        FAIR      36  30  80 CALM      30.03R
CROOKSTON      FOG       36  36 100 N7        30.08R VSB 1/2
GREENBUSH NDAW   N/A     36  34  93 W1          N/A
$$
  *****  WEATHER ACROSS CENTRAL AND WEST MINNESOTA  *****

CITY           SKY/WX    TMP DP  RH WIND       PRES   REMARKS
FOSSTON        FAIR      34  30  86 CALM      30.05R
BEMIDJI        FAIR      34  28  81 W6        30.02R
PARK RAPIDS    FAIR      38  25  59 CALM      30.01R
ELBOW LAKE     FAIR      39  33  78 S5        30.03R
WADENA         FAIR      36  32  87 S3        30.01R
DETROIT LAKES  FAIR      41  39  93 N5        30.04R
MOORHEAD       FAIR      37  37 100 N5        30.05R FOG
FERGUS FALLS   FAIR      43  36  75 N3        30.06R
MORRIS MN      FAIR      43  34  70 CALM      30.02R
STAPLES        FAIR      36  30  80 CALM      30.02R
$$
  *****  WEATHER ELSEWHERE ACROSS MINNESOTA  *****

CITY           SKY/WX    TMP DP  RH WIND       PRES   REMARKS
DULUTH         FAIR      38  30  73 E3        30.02R
INTRNTL FALLS  CLOUDY    44  26  49 N6        30.02R
ELY            FAIR      28  25  86 SE3       30.02R
CLOQUET        FAIR      32  28  86 CALM      30.02S
WHEATON        FAIR      39  34  81 CALM      30.05R
BRAINERD       FAIR      32  28  85 S3        30.02R
HIBBING        FAIR      27  25  92 E3        30.01R
ALEXANDRIA     FAIR      40  34  79 CALM      30.02R
SAINT CLOUD    FAIR      37  34  89 CALM      30.01S
MINNEAPOLIS    FAIR      47  36  65 CALM      30.02R
$$

  *****  WEATHER ACROSS SOUTH DAKOTA  *****

CITY           SKY/WX    TMP DP  RH WIND       PRES   REMARKS
SIOUX FALLS    FAIR      46  39  76 S8        30.01R
BROOKINGS      FAIR      45  36  70 E3        30.00R
WATERTOWN      CLOUDY    46  37  71 E6        30.01R
HURON          FAIR      42  36  79 E6        29.99R
SISSETON         N/A     37  32  82 CALM      30.01R
ABERDEEN       CLOUDY    44  32  62 N3        30.01R
MITCHELL       FAIR      45  37  73 SE7       29.99R
PIERRE         FAIR      42  32  67 E6        29.96R
MOBRIDGE       FAIR      43  33  68 E3        29.96R
RAPID CITY     FAIR      47  35  63 E12       29.93R
$$

  *****  SOME WEATHER IN NEARBY STATES *****

CITY           SKY/WX    TMP DP  RH WIND       PRES   REMARKS
GLASGOW MT     FAIR      42  34  73 E12       29.94R
GREAT FALLS MT LGT RAIN  41  36  82 VRB7      30.00R
CHEYENNE WY    CLOUDY    43  39  86 N8        29.87R
SCOTTSBLUFF NE CLOUDY    55  37  50 NE7       29.85R
OMAHA NE       FAIR      45  37  73 E3        30.02R
DES MOINES IA  CLOUDY    48  41  76 N5        30.01R
DAVENPORT IA   CLOUDY    48  46  93 CALM      29.98S
CHICAGO IL     CLOUDY    42  36  79 NE9       29.98R
EAU CLAIRE WI  FAIR      34  33  96 CALM      30.01R
LA CROSSE WI   CLOUDY    44  39  82 NW6       30.01S
$$

  *****  SOME NATIONAL WEATHER *****

CITY           SKY/WX    TMP DP  RH WIND       PRES   REMARKS
LA GUARDIA NY  CLOUDY    44  41  89 E3        30.01S
RALEIGH NC     MOCLDY    68  54  60 S13       29.98S
ATLANTA GA     CLOUDY    71  55  56 SW13      29.97S
NEW ORLEANS LA MOCLDY    71  69  93 S8        29.96F
OKLAHOMA CITY  FAIR      56  47  71 NE13      29.93S
ALBUQUERQUE NM MOCLDY    54  37  52 N8        29.87R
SALT LAKE CITY MOCLDY    43  39  86 N9        29.97R
LOS ANGELES CA FAIR      64  37  36 VRB3      29.98R
BOISE ID       FAIR      45  32  60 NW8       30.14R
SEATTLE WA     CLOUDY    47  42  83 SW16      30.22R
$$

*** WEATHER ACROSS MANITOBA...SASKATCHEWAN AND ONTARIO ***
                ***ONTARIO***

CITY           SKY/WX    TMP DP  RH WIND       PRES   REMARKS
GERALDTON      PTCLDY    28  23  80 N3        30.01R
THUNDER BAY    PTCLDY    28  27  93 NW3       30.03R
SIOUX LOOKOUT  CLOUDY    30  27  86 N2        30.05R
TORONTO        CLOUDY    52  50  93 W6        29.89S
BIG TROUT LK   FLURRIES  18  10  73 N6        30.15S WCI   9
PICKLE LAKE    NOT AVBL
DRYDEN         CLOUDY    39  28  65 N5        30.04S
KENORA         MOCLDY    39  28  65 N5        30.06R
$$
                *** MANITOBA***

CITY           SKY/WX    TMP DP  RH WIND       PRES   REMARKS
BRANDON        MOCLDY    32  27  80 E14       30.12R WCI  22
DAUPHIN        CLOUDY    32  28  86 NE7       30.17S
ISLAND LAKE    PTCLDY    19  10  68 CALM      30.23R
PILOT MOUND      N/A     34  30  86 NE7         N/A
THE PAS        PTCLDY    21  16  79 E5        30.22S WCI  15
THOMPSON       NOT AVBL
WINNIPEG       PTCLDY    34  27  75 NE10      30.13R
LYNN LAKE      CLEAR     14  12  92 E3        30.25R
CHURCHILL      CLEAR     -2  -4  92 N10       30.38S WCI -19
GILLAM         FLURRIES   9   5  85 NE6       30.30S WCI  -1
$$
                ***SASKATCHEWAN***

CITY           SKY/WX    TMP DP  RH WIND       PRES   REMARKS
ESTEVAN        CLOUDY    34  34 100 E8        30.06R FOG
KINDERSLEY     CLOUDY    39  34  81 E17       29.95R
LLOYDMINSTER   CLOUDY    34  34 100 SE7       29.98S
PRINCE ALBERT  MOCLDY    30  25  80 SE6       30.11R WCI  24
REGINA         CLOUDY    36  36 100 E13       30.05R
YORKTON        CLOUDY    32  30  93 E12       30.11R WCI  23
N. BATTLEFORD  CLOUDY    34  34 100 E14       30.03R WCI  24
LA RONGE       MOCLDY    30  21  69 E7        30.15R WCI  23
SASKATOON      CLOUDY    36  32  87 E12       30.06R
SWIFT CURRENT  CLOUDY    37  34  87 SE9       29.96R
$$
NOTE: THESE ARE AUTOMATED STATIONS WITH LIMITED QUALITY CONTROL
      "FAIR" INDICATES FEW OR NO CLOUDS BELOW 12,000 FEET WITH NO
      SIGNIFICANT WEATHER AND/OR OBSTRUCTIONS TO VISIBILITY.
      SKY/WX - SKY CONDITION AND SIGNIFICANT WEATHER.
      TMP - AIR TEMPERATURE.    DP   - DEWPOINT TEMPERATURE.
      RH  - RELATIVE HUMIDITY.  PRES - PRESSURE.
      HX  - HEAT INDEX.         WCI  - WIND CHILL INDEX.
$




USA.gov is the U.S. government's official web portal to all federal, state and local government web resources and services.